AAL4781 KJFK-KDCA

Flight info

Callsign AAL4781
Flight time 0h 46m
Altitude 28000
Route KJFK/22R N0443F280 DCT RBV Q430 COPES Q75 MXE CLIPR3 KDCA/19
Aircraft A321/M-VGDW/C

Departure

Time 2026-05-07 00:12
Airport John F. Kennedy International Airport (KJFK)

Arrival

Time 2026-05-07 00:58
Airport Ronald Reagan Washington National Airport (KDCA)
Time Latitude Longitude Altitude Speed Heading
2026-05-06 23:40 40.65051 -73.79296 24 ft 0 kts 150°
2026-05-06 23:48 40.65067 -73.79308 26 ft 4 kts 150°
2026-05-06 23:48 40.65086 -73.79322 24 ft 4 kts 148°
2026-05-06 23:48 40.65100 -73.79342 26 ft 4 kts 81°
2026-05-06 23:48 40.65091 -73.79371 26 ft 4 kts 61°
2026-05-06 23:49 40.65088 -73.79378 24 ft 0 kts 61°
2026-05-07 00:02 40.65089 -73.79376 23 ft 2 kts 61°
2026-05-07 00:02 40.65103 -73.79341 23 ft 6 kts 61°
2026-05-07 00:02 40.65128 -73.79281 25 ft 8 kts 62°
2026-05-07 00:03 40.65118 -73.79242 26 ft 2 kts 185°
2026-05-07 00:03 40.65119 -73.79258 25 ft 2 kts 279°
2026-05-07 00:03 40.65125 -73.79278 25 ft 0 kts 303°
2026-05-07 00:04 40.65132 -73.79284 24 ft 4 kts 317°
2026-05-07 00:04 40.65179 -73.79318 24 ft 10 kts 352°
2026-05-07 00:04 40.65209 -73.79236 23 ft 13 kts 98°
2026-05-07 00:04 40.65184 -73.79120 23 ft 14 kts 108°
2026-05-07 00:05 40.65153 -73.78996 23 ft 15 kts 108°
2026-05-07 00:05 40.65136 -73.78864 23 ft 15 kts 90°
2026-05-07 00:05 40.65153 -73.78745 26 ft 11 kts 70°
2026-05-07 00:05 40.65187 -73.78653 26 ft 10 kts 62°
2026-05-07 00:06 40.65216 -73.78583 27 ft 11 kts 59°
2026-05-07 00:06 40.65265 -73.78455 23 ft 17 kts 76°
2026-05-07 00:06 40.65238 -73.78316 27 ft 15 kts 119°
2026-05-07 00:06 40.65180 -73.78189 24 ft 17 kts 121°
2026-05-07 00:07 40.65113 -73.78043 23 ft 19 kts 121°
2026-05-07 00:07 40.65044 -73.77891 21 ft 20 kts 121°
2026-05-07 00:07 40.64971 -73.77732 20 ft 18 kts 121°
2026-05-07 00:07 40.64914 -73.77605 21 ft 12 kts 121°
2026-05-07 00:08 40.64934 -73.77511 19 ft 13 kts 43°
2026-05-07 00:08 40.65014 -73.77436 20 ft 14 kts 25°
2026-05-07 00:08 40.65103 -73.77392 20 ft 14 kts 29°
2026-05-07 00:08 40.65113 -73.77280 21 ft 17 kts 116°
2026-05-07 00:09 40.65048 -73.77137 21 ft 19 kts 122°
2026-05-07 00:09 40.64981 -73.76989 21 ft 19 kts 121°
2026-05-07 00:09 40.64912 -73.76837 21 ft 20 kts 120°
2026-05-07 00:09 40.64845 -73.76688 22 ft 17 kts 121°
2026-05-07 00:10 40.64840 -73.76654 22 ft 1 kts 37°
2026-05-07 00:10 40.64839 -73.76636 22 ft 4 kts 127°
2026-05-07 00:10 40.64806 -73.76587 22 ft 8 kts 131°
2026-05-07 00:10 40.64762 -73.76562 22 ft 7 kts 201°
2026-05-07 00:11 40.64717 -73.76595 21 ft 10 kts 212°
2026-05-07 00:11 40.64543 -73.76733 20 ft 62 kts 210°
2026-05-07 00:11 40.63976 -73.77173 23 ft 125 kts 211°
2026-05-07 00:11 40.63080 -73.77874 94 ft 167 kts 211°
2026-05-07 00:12 40.62100 -73.78653 776 ft 162 kts 212°
2026-05-07 00:12 40.61143 -73.79429 1495 ft 161 kts 215°
2026-05-07 00:12 40.60171 -73.80218 1987 ft 171 kts 217°
2026-05-07 00:12 40.59099 -73.81094 2133 ft 193 kts 216°
2026-05-07 00:13 40.57892 -73.82079 2279 ft 217 kts 216°
2026-05-07 00:13 40.56534 -73.83181 2615 ft 236 kts 215°
2026-05-07 00:13 40.55110 -73.84327 3265 ft 243 kts 216°
2026-05-07 00:13 40.53655 -73.85488 4016 ft 246 kts 216°
2026-05-07 00:14 40.52183 -73.86662 4790 ft 248 kts 216°
2026-05-07 00:14 40.50700 -73.87847 5543 ft 250 kts 216°
2026-05-07 00:14 40.49211 -73.89038 6298 ft 252 kts 217°
2026-05-07 00:14 40.47710 -73.90237 7007 ft 253 kts 217°
2026-05-07 00:15 40.46218 -73.91429 7716 ft 254 kts 217°
2026-05-07 00:15 40.44703 -73.92641 8468 ft 255 kts 217°
2026-05-07 00:15 40.43333 -73.94060 9189 ft 249 kts 234°
2026-05-07 00:15 40.42417 -73.95980 9813 ft 250 kts 244°
2026-05-07 00:16 40.41577 -73.98001 10323 ft 259 kts 244°
2026-05-07 00:16 40.40687 -74.00172 10456 ft 281 kts 244°
2026-05-07 00:16 40.39733 -74.02513 10652 ft 300 kts 244°
2026-05-07 00:16 40.38737 -74.04957 11139 ft 307 kts 244°
2026-05-07 00:17 40.37720 -74.07436 11758 ft 310 kts 243°
2026-05-07 00:17 40.36691 -74.09928 12394 ft 312 kts 243°
2026-05-07 00:17 40.35648 -74.12439 13036 ft 315 kts 243°
2026-05-07 00:17 40.34596 -74.14970 13677 ft 317 kts 243°
2026-05-07 00:18 40.33540 -74.17517 14233 ft 320 kts 243°
2026-05-07 00:18 40.32473 -74.20096 14792 ft 323 kts 243°
2026-05-07 00:18 40.31398 -74.22695 15361 ft 325 kts 244°
2026-05-07 00:18 40.30313 -74.25316 15935 ft 328 kts 244°
2026-05-07 00:19 40.29217 -74.27955 16497 ft 331 kts 244°
2026-05-07 00:19 40.28111 -74.30613 17052 ft 334 kts 244°
2026-05-07 00:19 40.26996 -74.33295 17570 ft 337 kts 245°
2026-05-07 00:19 40.25873 -74.35999 18111 ft 340 kts 245°
2026-05-07 00:20 40.24740 -74.38726 18632 ft 341 kts 245°
2026-05-07 00:20 40.23604 -74.41450 19178 ft 341 kts 245°
2026-05-07 00:20 40.22848 -74.43255 19550 ft 342 kts 245°
2026-05-07 00:20 40.21706 -74.45977 20112 ft 341 kts 246°
2026-05-07 00:21 40.20671 -74.48759 20669 ft 338 kts 253°
2026-05-07 00:21 40.20076 -74.51721 21208 ft 336 kts 263°
2026-05-07 00:21 40.19832 -74.54750 21697 ft 335 kts 265°
2026-05-07 00:21 40.19604 -74.57775 21825 ft 333 kts 265°
2026-05-07 00:22 40.19371 -74.60768 21855 ft 330 kts 265°
2026-05-07 00:22 40.19136 -74.63755 21851 ft 329 kts 265°
2026-05-07 00:22 40.18898 -74.66736 21848 ft 329 kts 264°
2026-05-07 00:22 40.18658 -74.69706 21852 ft 329 kts 264°
2026-05-07 00:23 40.18419 -74.72681 21850 ft 329 kts 265°
2026-05-07 00:23 40.18183 -74.75657 21850 ft 329 kts 265°
2026-05-07 00:23 40.17946 -74.78628 21848 ft 329 kts 265°
2026-05-07 00:23 40.17708 -74.81604 21855 ft 329 kts 265°
2026-05-07 00:24 40.17472 -74.84573 21849 ft 329 kts 265°
2026-05-07 00:24 40.17235 -74.87527 21850 ft 329 kts 264°
2026-05-07 00:24 40.16993 -74.90525 21854 ft 329 kts 264°
2026-05-07 00:24 40.16751 -74.93494 21852 ft 329 kts 264°
2026-05-07 00:25 40.16508 -74.96468 21856 ft 329 kts 264°
2026-05-07 00:25 40.16266 -74.99440 21863 ft 329 kts 264°
2026-05-07 00:25 40.16023 -75.02417 21872 ft 329 kts 264°
2026-05-07 00:25 40.15780 -75.05391 21877 ft 329 kts 264°
2026-05-07 00:26 40.15537 -75.08357 21871 ft 329 kts 264°
2026-05-07 00:26 40.15294 -75.11294 21868 ft 329 kts 264°
2026-05-07 00:26 40.15046 -75.14269 21871 ft 329 kts 264°
2026-05-07 00:26 40.14797 -75.17235 21879 ft 329 kts 264°
2026-05-07 00:27 40.14549 -75.20204 21881 ft 329 kts 264°
2026-05-07 00:27 40.14300 -75.23176 21881 ft 329 kts 264°
2026-05-07 00:27 40.14047 -75.26150 21881 ft 329 kts 264°
2026-05-07 00:27 40.13793 -75.29117 21885 ft 329 kts 264°
2026-05-07 00:28 40.13541 -75.32088 21884 ft 329 kts 264°
2026-05-07 00:28 40.13215 -75.35046 21886 ft 330 kts 258°
2026-05-07 00:28 40.12417 -75.37868 21885 ft 334 kts 247°
2026-05-07 00:28 40.11103 -75.40408 21882 ft 343 kts 236°
2026-05-07 00:29 40.09459 -75.42684 21907 ft 345 kts 234°
2026-05-07 00:29 40.07813 -75.44950 21907 ft 344 kts 234°
2026-05-07 00:30 40.02896 -75.51774 21912 ft 343 kts 234°
2026-05-07 00:30 40.01259 -75.54037 21906 ft 343 kts 234°
2026-05-07 00:30 39.99621 -75.56296 21858 ft 343 kts 234°
2026-05-07 00:30 39.97978 -75.58562 21859 ft 344 kts 234°
2026-05-07 00:31 39.96333 -75.60830 21867 ft 345 kts 234°
2026-05-07 00:31 39.94707 -75.63074 21867 ft 345 kts 234°
2026-05-07 00:31 39.93059 -75.65346 21866 ft 345 kts 234°
2026-05-07 00:31 39.91488 -75.67693 21866 ft 340 kts 240°
2026-05-07 00:32 39.90149 -75.70268 21870 ft 339 kts 242°
2026-05-07 00:32 39.88847 -75.72784 21862 ft 339 kts 242°
2026-05-07 00:32 39.87504 -75.75363 21866 ft 340 kts 242°
2026-05-07 00:32 39.86197 -75.77871 21867 ft 340 kts 242°
2026-05-07 00:33 39.84871 -75.80413 21892 ft 339 kts 242°
2026-05-07 00:33 39.83543 -75.82951 21889 ft 339 kts 242°
2026-05-07 00:33 39.82231 -75.85453 21653 ft 331 kts 242°
2026-05-07 00:33 39.80951 -75.87894 21397 ft 322 kts 242°
2026-05-07 00:34 39.79709 -75.90266 21142 ft 314 kts 242°
2026-05-07 00:34 39.78489 -75.92593 20888 ft 310 kts 242°
2026-05-07 00:34 39.77278 -75.94904 20645 ft 309 kts 242°
2026-05-07 00:34 39.76067 -75.97214 20402 ft 309 kts 242°
2026-05-07 00:35 39.74858 -75.99526 20158 ft 309 kts 242°
2026-05-07 00:35 39.73649 -76.01834 19917 ft 309 kts 241°
2026-05-07 00:35 39.72439 -76.04141 19677 ft 309 kts 241°
2026-05-07 00:35 39.71226 -76.06450 19440 ft 309 kts 241°
2026-05-07 00:36 39.70015 -76.08757 19204 ft 310 kts 241°
2026-05-07 00:36 39.68800 -76.11070 18969 ft 310 kts 240°
2026-05-07 00:36 39.67584 -76.13378 18737 ft 310 kts 240°
2026-05-07 00:36 39.66365 -76.15685 18483 ft 307 kts 240°
2026-05-07 00:37 39.65176 -76.17932 18053 ft 305 kts 240°
2026-05-07 00:37 39.63983 -76.20193 17554 ft 302 kts 240°
2026-05-07 00:37 39.62802 -76.22434 17108 ft 299 kts 240°
2026-05-07 00:37 39.61630 -76.24651 16663 ft 297 kts 240°
2026-05-07 00:38 39.60467 -76.26848 16227 ft 294 kts 239°
2026-05-07 00:38 39.59290 -76.29013 15787 ft 294 kts 235°
2026-05-07 00:38 39.57815 -76.30876 15340 ft 299 kts 223°
2026-05-07 00:38 39.56084 -76.32394 14897 ft 300 kts 220°
2026-05-07 00:39 39.54349 -76.33890 14449 ft 299 kts 220°
2026-05-07 00:39 39.52623 -76.35388 13999 ft 298 kts 220°
2026-05-07 00:39 39.50909 -76.36882 13549 ft 297 kts 220°
2026-05-07 00:39 39.49199 -76.38368 13095 ft 294 kts 219°
2026-05-07 00:40 39.47506 -76.39838 12656 ft 292 kts 219°
2026-05-07 00:40 39.45827 -76.41295 12240 ft 289 kts 219°
2026-05-07 00:40 39.44165 -76.42740 11985 ft 290 kts 218°
2026-05-07 00:40 39.42476 -76.44213 11997 ft 295 kts 219°
2026-05-07 00:41 39.40769 -76.45700 12001 ft 296 kts 219°
2026-05-07 00:41 39.39056 -76.47189 11997 ft 297 kts 218°
2026-05-07 00:41 39.37340 -76.48675 12025 ft 297 kts 218°
2026-05-07 00:41 39.35623 -76.50158 12026 ft 297 kts 218°
2026-05-07 00:42 39.33906 -76.51640 12029 ft 296 kts 219°
2026-05-07 00:42 39.32196 -76.53118 12026 ft 296 kts 219°
2026-05-07 00:42 39.30484 -76.54599 12024 ft 295 kts 219°
2026-05-07 00:42 39.28776 -76.56074 12023 ft 295 kts 219°
2026-05-07 00:43 39.27070 -76.57548 11996 ft 295 kts 219°
2026-05-07 00:43 39.25362 -76.59019 11998 ft 295 kts 219°
2026-05-07 00:43 39.23646 -76.60492 11995 ft 298 kts 218°
2026-05-07 00:43 39.21916 -76.61981 11988 ft 296 kts 218°
2026-05-07 00:44 39.20247 -76.63408 12003 ft 280 kts 218°
2026-05-07 00:44 39.18655 -76.64768 11989 ft 272 kts 219°
2026-05-07 00:44 39.17098 -76.66140 12001 ft 269 kts 224°
2026-05-07 00:44 39.15736 -76.67732 12000 ft 267 kts 227°
2026-05-07 00:45 39.14376 -76.69358 12004 ft 267 kts 227°
2026-05-07 00:45 39.13009 -76.70982 11992 ft 267 kts 227°
2026-05-07 00:45 39.11640 -76.72605 12037 ft 268 kts 227°
2026-05-07 00:45 39.10268 -76.74232 12033 ft 267 kts 227°
2026-05-07 00:46 39.08901 -76.75855 12034 ft 267 kts 227°
2026-05-07 00:46 39.07537 -76.77475 12034 ft 267 kts 227°
2026-05-07 00:46 39.06172 -76.79095 12037 ft 267 kts 227°
2026-05-07 00:46 39.04806 -76.80710 11780 ft 267 kts 226°
2026-05-07 00:47 39.03431 -76.82331 11340 ft 268 kts 226°
2026-05-07 00:47 39.02057 -76.83952 10955 ft 268 kts 226°
2026-05-07 00:47 39.00685 -76.85568 10607 ft 266 kts 226°
2026-05-07 00:47 38.99510 -76.87334 10358 ft 257 kts 243°
2026-05-07 00:48 38.98971 -76.89501 10101 ft 257 kts 264°
2026-05-07 00:48 38.99168 -76.91786 9915 ft 261 kts 283°
2026-05-07 00:48 38.99708 -76.93982 9734 ft 258 kts 284°
2026-05-07 00:48 39.00243 -76.96162 9429 ft 254 kts 283°
2026-05-07 00:49 39.00767 -76.98321 9132 ft 251 kts 283°
2026-05-07 00:49 39.01280 -77.00450 8835 ft 247 kts 283°
2026-05-07 00:49 39.01790 -77.02552 8538 ft 245 kts 283°
2026-05-07 00:49 39.02292 -77.04626 8246 ft 242 kts 283°
2026-05-07 00:50 39.02792 -77.06684 8048 ft 245 kts 283°
2026-05-07 00:50 39.03349 -77.08822 8015 ft 258 kts 290°
2026-05-07 00:50 39.04311 -77.10798 8028 ft 266 kts 306°
2026-05-07 00:50 39.05640 -77.12492 7896 ft 270 kts 311°
2026-05-07 00:51 39.06976 -77.14136 7717 ft 261 kts 310°
2026-05-07 00:51 39.08296 -77.15777 7078 ft 272 kts 310°
2026-05-07 00:51 39.09579 -77.17622 6407 ft 277 kts 296°
2026-05-07 00:51 39.10202 -77.19948 5738 ft 277 kts 272°
2026-05-07 00:52 39.10027 -77.22337 5576 ft 263 kts 252°
2026-05-07 00:52 39.09215 -77.24376 5446 ft 252 kts 232°
2026-05-07 00:52 39.07919 -77.25821 5328 ft 245 kts 212°
2026-05-07 00:52 39.06327 -77.26524 5146 ft 242 kts 191°
2026-05-07 00:53 39.04653 -77.26427 4955 ft 242 kts 170°
2026-05-07 00:53 39.03088 -77.25580 4476 ft 253 kts 148°
2026-05-07 00:53 39.01801 -77.23954 3819 ft 264 kts 128°
2026-05-07 00:53 39.00714 -77.22148 3503 ft 253 kts 130°
2026-05-07 00:54 38.99667 -77.20424 3338 ft 238 kts 130°
2026-05-07 00:54 38.98651 -77.18778 3100 ft 231 kts 130°
2026-05-07 00:54 38.97674 -77.17204 2920 ft 218 kts 130°
2026-05-07 00:54 38.96766 -77.15737 2747 ft 202 kts 130°
2026-05-07 00:55 38.95783 -77.14515 2558 ft 194 kts 141°
2026-05-07 00:55 38.94770 -77.13398 2340 ft 191 kts 140°
2026-05-07 00:55 38.93771 -77.12292 2097 ft 188 kts 141°
2026-05-07 00:55 38.92678 -77.11401 1861 ft 184 kts 156°
2026-05-07 00:56 38.91590 -77.10676 1620 ft 170 kts 149°
2026-05-07 00:56 38.90792 -77.09616 1384 ft 166 kts 120°
2026-05-07 00:56 38.90397 -77.08234 1184 ft 165 kts 104°
2026-05-07 00:56 38.89964 -77.06899 1010 ft 160 kts 122°
2026-05-07 00:57 38.89223 -77.05788 721 ft 159 kts 137°
2026-05-07 00:57 38.88425 -77.04901 573 ft 151 kts 144°
2026-05-07 00:57 38.87524 -77.04249 379 ft 147 kts 162°
2026-05-07 00:57 38.86536 -77.03962 148 ft 146 kts 171°
2026-05-07 00:58 38.85555 -77.03817 28 ft 131 kts 176°
2026-05-07 00:58 38.84803 -77.03744 24 ft 74 kts 175°
2026-05-07 00:58 38.84503 -77.03713 24 ft 19 kts 175°
2026-05-07 00:58 38.84401 -77.03750 26 ft 15 kts 240°
2026-05-07 00:59 38.84458 -77.03850 25 ft 0 kts 357°
2026-05-07 00:59 38.84460 -77.03850 25 ft 2 kts 358°
2026-05-07 00:59 38.84499 -77.03851 24 ft 10 kts 359°
2026-05-07 01:00 38.84584 -77.03858 24 ft 13 kts 355°
2026-05-07 01:00 38.84684 -77.03868 25 ft 17 kts 356°
2026-05-07 01:00 38.84836 -77.03883 24 ft 26 kts 355°
2026-05-07 01:00 38.85025 -77.03902 24 ft 27 kts 355°
2026-05-07 01:01 38.85176 -77.03917 24 ft 18 kts 354°
2026-05-07 01:01 38.85303 -77.03931 24 ft 19 kts 355°
2026-05-07 01:01 38.85436 -77.03944 24 ft 20 kts 355°
2026-05-07 01:01 38.85553 -77.03956 24 ft 14 kts 354°
2026-05-07 01:02 38.85639 -77.04017 24 ft 15 kts 324°
2026-05-07 01:02 38.85723 -77.04098 24 ft 16 kts 322°
2026-05-07 01:02 38.85794 -77.04169 24 ft 9 kts 321°
2026-05-07 01:02 38.85842 -77.04220 24 ft 7 kts 321°
2026-05-07 01:03 38.85846 -77.04267 24 ft 5 kts 242°
2026-05-07 01:03 38.85837 -77.04286 26 ft 2 kts 236°
2026-05-07 01:03 38.85831 -77.04297 24 ft 1 kts 235°
2026-05-07 01:03 38.85827 -77.04303 24 ft 0 kts 235°
2026-05-07 01:04 38.85827 -77.04304 24 ft 0 kts 235°